Flag for Panama Weather past 2 weeks in Panama, Panama

Now
79 °F

Passing clouds.


Feels Like: 82 °F
Forecast: 76 / 91 °F
Wind: 7 mph from Northwest

Location: Marcos A. Gelabert

Current Time: Feb 26, 2015 at 11:15:02 PM

Latest Report: Feb 26, 2015 at 10:00 PM


Visibility: N/A

Pressure: 29.86 "Hg

Humidity: 84%

Dew point: 73 °F

Location of PanamaLocation

Historic Weather in Panama — Graph

°F

Panama temperature yesterday

Maximum temperature yesterday: 90 °F (at 1:00 PM)
Minimum temperature yesterday: 75 °F (at 6:00 AM)
Average temperature yesterday: 83 °F

Past Weeks' High & Low Weather Summary

 TemperatureHumidityPressure
High91 °F (Feb 22, 2:00 PM)94% (Feb 18, 6:00 AM)29.98 "Hg (Feb 18, 6:00 AM)
Low73 °F (Feb 21, 6:00 AM)34% (Feb 13, 8:00 AM)29.74 "Hg (Feb 22, 3:00 PM)
Average83 °F66%29.87 "Hg
* Reported Feb 12 6:00 AM — Feb 26 10:00 PM, Panama, Weather by CustomWeather, © 2015

Note: Actual official high and low records may vary slightly from our data, if they occured in-between our weather recording intervals... More about our weather records

Advertising

Panama weather history for previous 24 hours

 ConditionsComfort  
Time TempWeatherWind HumidityBarometerVisibility
10:00 PM
Thu, Feb 26
79 °FPassing clouds.7 mph84%29.86 "HgN/A
9:00 PM81 °FPassing clouds.7 mph79%29.86 "HgN/A
8:00 PM81 °FPassing clouds.7 mph79%29.83 "HgN/A
7:00 PM82 °FPassing clouds.7 mph74%29.80 "HgN/A
6:00 PM84 °FPassing clouds.12 mph66%29.80 "HgN/A
5:00 PM86 °FPassing clouds.12 mph62%29.77 "HgN/A
4:00 PM88 °FPassing clouds.13 mph59%29.77 "HgN/A
3:00 PM90 °FPassing clouds.9 mph52%29.77 "HgN/A
2:00 PM90 °FPassing clouds.9 mph52%29.77 "HgN/A
1:00 PM90 °FPassing clouds.9 mph49%29.83 "HgN/A
12:00 PM88 °FPassing clouds.15 mph52%29.86 "HgN/A
11:00 AM86 °FPassing clouds.12 mph55%29.89 "HgN/A
10:00 AM84 °FPassing clouds.12 mph62%29.89 "HgN/A
9:00 AM81 °FPassing clouds.9 mph74%29.89 "HgN/A
8:00 AM77 °FPassing clouds.3 mph83%29.89 "HgN/A
7:00 AM75 °FPassing clouds.5 mph89%29.86 "HgN/A
6:00 AM75 °FPassing clouds.3 mph89%29.86 "HgN/A
Weather by CustomWeather, © 2015

See weather overviewHow to use our weather pages